Weather History for KEGV - September, 2013

Change the Weather History Date:

Tuesday, September 3, 2013

  Actual Average Record
Temperature  
Mean Temperature 54 °F -  
Max Temperature 71 °F 68 °F 84 °F (2012)
Min Temperature 37 °F 48 °F 35 °F (1997)
Degree Days  
Heating Degree Days 11    
Growing Degree Days 4 (Base 50)    
Moisture  
Dew Point 46 °F    
Average Humidity 78    
Maximum Humidity 100    
Minimum Humidity 42    
Precipitation  
Precipitation 0.00 in - - ()
Sea Level Pressure  
Sea Level Pressure 30.02 in    
Wind  
Wind Speed 3 mph (WSW)    
Max Wind Speed 14 mph    
Max Gust Speed 17 mph    
Visibility 7 miles    
Events Fog    
Averages and records for this station are not official NWS values.
T = Trace of Precipitation, MM = Missing Value Source: NWS Daily Summary

Daily Weather History Graph

Daily Weather History Graph

Search for Another Location

Airport or City:

Trip Planner

Search our weather history database for the weather conditions in past years. The results will help you decide how hot, cold, wet, or windy it might be!

Date:

Astronomy

Sep. 03, 2013 Rise Set
Actual Time 6:20 AM CDT 7:31 PM CDT
Civil Twilight 5:49 AM CDT 8:01 PM CDT
Nautical Twilight 5:13 AM CDT 8:38 PM CDT
Astronomical Twilight 4:33 AM CDT 9:17 PM CDT
Moon 4:31 AM CDT (9/3) 6:19 PM CDT (9/3)
Length of Visible Light 14h 11m
Length of Day
13h 10m
Waning Crescent, 3% of the Moon is Illuminated
Sep 3
Waning Crescent
Sep 5
New
Sep 12
First Quarter
Sep 19
Full
Sep 26
Last Quarter

Hourly Weather History & Observations

Time (CDT) Temp. Dew Point Humidity Pressure Visibility Wind Dir Wind Speed Gust Speed Precip Events Conditions
12:15 AM 41.5 °F 41.5 °F 100% 30.04 in 0.5 mi Calm Calm - N/A   Overcast
12:35 AM 40.1 °F 40.1 °F 100% 30.04 in 0.5 mi Calm Calm - N/A Fog Fog
12:55 AM 41.4 °F 41.4 °F 100% 30.04 in 0.5 mi Calm Calm - N/A Fog Fog
1:15 AM 39.4 °F 39.4 °F 100% 30.04 in 0.2 mi Calm Calm - N/A Fog Fog
1:35 AM 40.1 °F 40.1 °F 100% 30.05 in 0.2 mi Calm Calm - N/A Fog Fog
1:55 AM 40.5 °F 40.5 °F 100% 30.05 in 0.8 mi Calm Calm - N/A   Overcast
2:15 AM 39.9 °F 39.9 °F 100% 30.05 in 0.5 mi Calm Calm - N/A Fog Fog
2:35 AM 39.2 °F 39.2 °F 100% 30.04 in 0.2 mi Calm Calm - N/A Fog Fog
2:55 AM 39.2 °F 39.2 °F 100% 30.04 in 0.5 mi Calm Calm - N/A Fog Fog
3:15 AM 39.6 °F 39.6 °F 100% 30.04 in 0.5 mi Calm Calm - N/A Fog Fog
3:35 AM 38.8 °F 38.8 °F 100% 30.04 in 0.8 mi Calm Calm - N/A   Overcast
3:55 AM 38.7 °F 38.7 °F 100% 30.04 in 0.5 mi Calm Calm - N/A Fog Fog
4:15 AM 38.8 °F 38.8 °F 100% 30.03 in 0.5 mi Calm Calm - N/A Fog Fog
4:35 AM 38.3 °F 38.3 °F 100% 30.04 in 0.5 mi Calm Calm - N/A Fog Fog
4:55 AM 38.3 °F 38.3 °F 100% 30.04 in 0.8 mi Calm Calm - N/A   Overcast
5:15 AM 37.8 °F 37.8 °F 100% 30.04 in 0.5 mi Calm Calm - N/A Fog Fog
5:35 AM 37.4 °F 37.4 °F 100% 30.04 in 0.2 mi Calm Calm - N/A Fog Fog
5:55 AM 37.9 °F 37.9 °F 100% 30.05 in 0.5 mi Calm Calm - N/A Fog Fog
6:15 AM 37.4 °F 37.4 °F 100% 30.05 in 0.2 mi Calm Calm - N/A Fog Fog
6:35 AM 37.9 °F 37.9 °F 100% 30.06 in 0.2 mi Calm Calm - N/A Fog Fog
6:55 AM 37.6 °F 37.6 °F 100% 30.06 in 0.2 mi Calm Calm - N/A Fog Fog
7:15 AM 39.0 °F 39.0 °F 100% 30.06 in 0.2 mi Calm Calm - N/A Fog Fog
7:35 AM 42.3 °F 42.3 °F 100% 30.06 in 0.5 mi Calm Calm - N/A Fog Fog
7:55 AM 46.9 °F 46.9 °F 100% 30.06 in 10.0 mi West 3.5 mph - N/A   Scattered Clouds
8:15 AM 51.1 °F 51.1 °F 100% 30.06 in 10.0 mi West 5.8 mph - N/A   Clear
8:35 AM 51.8 °F 51.8 °F 100% 30.07 in 10.0 mi West 6.9 mph - N/A   Clear
8:55 AM 53.1 °F 53.1 °F 100% 30.06 in 10.0 mi WNW 5.8 mph - N/A   Clear
9:15 AM 54.3 °F 54.3 °F 100% 30.07 in 10.0 mi West 6.9 mph - N/A   Clear
9:35 AM 55.8 °F 55.8 °F 100% 30.07 in 10.0 mi WNW 6.9 mph - N/A   Clear
9:55 AM 60.1 °F 50.4 °F 70% 30.07 in 10.0 mi West 10.4 mph - N/A   Clear
10:15 AM 60.6 °F 49.8 °F 68% 30.07 in 10.0 mi West 10.4 mph - N/A   Clear
10:35 AM 61.5 °F 48.7 °F 63% 30.06 in 10.0 mi West 10.4 mph - N/A   Clear
10:55 AM 62.8 °F 48.7 °F 60% 30.06 in 10.0 mi West 8.1 mph - N/A   Clear
11:15 AM 63.7 °F 49.1 °F 59% 30.06 in 10.0 mi West 13.8 mph - N/A   Scattered Clouds
11:35 AM 63.9 °F 48.4 °F 57% 30.06 in 10.0 mi West 8.1 mph - N/A   Clear
11:55 AM 64.2 °F 47.5 °F 55% 30.05 in 10.0 mi WSW 10.4 mph 17.3 mph N/A   Clear
12:15 PM 64.9 °F 47.7 °F 54% 30.04 in 10.0 mi SW 10.4 mph - N/A   Clear
12:35 PM 66.0 °F 48.4 °F 53% 30.03 in 10.0 mi WSW 12.7 mph - N/A   Clear
12:55 PM 66.4 °F 46.9 °F 50% 30.03 in 10.0 mi WSW 8.1 mph - N/A   Clear
1:15 PM 66.9 °F 47.3 °F 49% 30.02 in 10.0 mi WSW 9.2 mph 16.1 mph N/A   Clear
1:35 PM 68.2 °F 48.2 °F 49% 30.01 in 10.0 mi WSW 11.5 mph 16.1 mph N/A   Clear
1:55 PM 68.2 °F 47.7 °F 48% 30.01 in 10.0 mi West 9.2 mph - N/A   Clear
2:15 PM 68.2 °F 47.1 °F 47% 30.01 in 10.0 mi WSW 11.5 mph - N/A   Clear
2:35 PM 69.8 °F 48.9 °F 47% 30.01 in 10.0 mi WSW 9.2 mph - N/A   Clear
2:55 PM 69.3 °F 46.8 °F 45% 30.01 in 10.0 mi West 10.4 mph 16.1 mph N/A   Clear
3:15 PM 70.2 °F 46.9 °F 43% 30.00 in 10.0 mi WSW 10.4 mph - N/A   Clear
3:35 PM 70.5 °F 46.9 °F 43% 30.00 in 10.0 mi West 8.1 mph - N/A   Clear
3:55 PM 71.6 °F 47.1 °F 42% 29.99 in 10.0 mi West 8.1 mph - N/A   Clear
4:15 PM 70.9 °F 46.6 °F 42% 29.99 in 10.0 mi West 11.5 mph 16.1 mph N/A   Clear
4:35 PM 70.7 °F 47.1 °F 43% 29.98 in 10.0 mi West 11.5 mph - N/A   Clear
4:55 PM 70.7 °F 47.8 °F 44% 29.98 in 10.0 mi WSW 10.4 mph - N/A   Clear
5:15 PM 70.2 °F 47.1 °F 44% 29.97 in 10.0 mi WSW 11.5 mph - N/A   Clear
5:35 PM 70.2 °F 48.7 °F 46% 29.97 in 10.0 mi WSW 8.1 mph - N/A   Clear
5:55 PM 69.4 °F 48.6 °F 47% 29.97 in 10.0 mi WSW 9.2 mph - N/A   Clear
6:15 PM 68.9 °F 49.5 °F 50% 29.97 in 10.0 mi West 6.9 mph - N/A   Clear
6:35 PM 67.8 °F 50.5 °F 54% 29.96 in 10.0 mi WSW 6.9 mph - N/A   Clear
6:55 PM 64.9 °F 52.0 °F 63% 29.97 in 10.0 mi WSW 4.6 mph - N/A   Clear
7:15 PM 63.1 °F 51.4 °F 66% 29.97 in 10.0 mi SW 4.6 mph - N/A   Clear
7:35 PM 60.4 °F 51.3 °F 72% 29.96 in 10.0 mi SW 3.5 mph - N/A   Clear
7:55 PM 58.8 °F 50.4 °F 73% 29.97 in 10.0 mi WSW 5.8 mph - N/A   Clear
8:15 PM 57.9 °F 50.5 °F 76% 29.98 in 10.0 mi WSW 4.6 mph - N/A   Clear
8:35 PM 58.1 °F 51.1 °F 77% 29.98 in 10.0 mi West 4.6 mph - N/A   Clear
8:55 PM 59.2 °F 51.6 °F 76% 29.98 in 10.0 mi SW 4.6 mph - N/A   Clear
9:15 PM 57.0 °F 51.3 °F 81% 29.98 in 10.0 mi SW 4.6 mph - N/A   Clear
9:35 PM 57.2 °F 51.3 °F 81% 29.99 in 10.0 mi WSW 4.6 mph - N/A   Clear
9:55 PM 55.6 °F 51.4 °F 86% 29.99 in 10.0 mi Calm Calm - N/A   Clear
10:15 PM 53.8 °F 52.9 °F 97% 29.99 in 10.0 mi WSW 4.6 mph - N/A   Clear
10:35 PM 53.4 °F 53.1 °F 99% 29.99 in 10.0 mi WSW 5.8 mph - N/A   Clear
10:55 PM 52.9 °F 52.3 °F 98% 29.99 in 10.0 mi West 5.8 mph - N/A   Clear
11:15 PM 53.4 °F 52.3 °F 96% 29.99 in 10.0 mi WSW 6.9 mph - N/A   Clear
11:35 PM 53.6 °F 52.2 °F 95% 30.00 in 10.0 mi WSW 4.6 mph - N/A   Clear
11:55 PM 54.9 °F 52.5 °F 92% 29.99 in 10.0 mi WSW 4.6 mph - N/A   Clear